カタログに戻る

STARLINK-37423

運用中通信SSO
NORAD 68852·PAYLOAD·🇺🇸 United States

打ち上げ Apr 26, 2026 から Vandenberg Space Force Base

Loading…

次のパス (今後24時間)

TLE

最新Source: CelesTrak SupGP

元期: Sep 15, 2026, 03:34 UTC

1 68852C 26094P   26258.14909722 -.00071821  00000+0 -22299-2 0  2581
2 68852  97.2834 271.3674 0001541  97.5323  81.6741 15.33469180    12

AllMySatでSTARLINK-37423をリアルタイム追跡

Download on the App Store